{"data":{"norad_id":59645,"epoch":"2026-09-21T19:20:47.500512Z","epoch_age_seconds":55232,"freshness":"FRESH","line1":"1 59645U 24082Q   26264.80610533 -.00010602  00000+0 -37581-3 0  9998","line2":"2 59645  43.0046  53.6802 0001650 284.7476  75.3193 15.27619705135473","mean_motion":15.27619705,"eccentricity":0.000165,"inclination_deg":43.0046,"raan_deg":53.6802,"arg_perigee_deg":284.7476,"mean_anomaly_deg":75.3193,"bstar":-0.00037581,"rev_number":13547,"period_min":94.264298587324,"perigee_km":481.79813147174,"apogee_km":484.06228365023,"semimajor_km":6861.067207561,"source":"CELESTRAK","updated_at":"2026-09-22T09:00:49.021692Z"}}